COSMOS 249 DEB

Satellite information

Favourite Embed

Satellite Type and Status

DEBRISIN ORBIT

Key statistics

Satellite COSMOS 249 DEB at a glance.

Uptime

20776

Days in orbit

Revolutions

≈ 12.9

Per day

Orbit

LEO

Low Earth Orbit

Inclination

62.1

Latest

Satellite identification and parameters

Extended collection of information and parameters for COSMOS 249 DEB.

Object identification

Identified? True

Debris? True

Object name: COSMOS 249 DEB

International designator: 1968-091R

Object number (NORAD): 3583

Object ID (CCSDS): 3583

Country: COMMONWEALTH OF INDEPENDENT STATES (CIS)

Current information (Y/N): Y

RCS size: SMALL

Orbital parameters

Period: 112.019 minutes

Inclination: 62.0777 deg

SMA: 7697.575 km

Apoapsis: 1865.765 km

Periapsis: 773.116 km

RAAN: 135.6426 deg

Eccentricy: 0.0709736

Argument of periapsis: 75.7931 deg

Mean anomaly: 292.079 deg

Mean motion: 12.85499252 rev/day

Mean motion (dot): 0.00001286 rev/day2

B* drag term: 0.0018495304 1/REarth

Two-line elements (TLE)

Creation date: Sept. 6, 2025, 10:23 a.m.

Reference frame: TEME

Reference center: EARTH

Epoch: Sept. 6, 2025, 12:41 a.m. UTC

TLE line 0: 0 COSMOS 249 DEB

TLE line 1: 1 03583U 68091R 25249.02880505 .00001286 00000-0 18495-2 0 9999

TLE line 2: 2 03583 62.0777 135.6426 0709736 75.7931 292.0790 12.85499252647688

Live tracking on map

Real-time ground track for satellite COSMOS 249 DEB.

In-orbit conjunctions

A list of the most updated potential collisions computed for object COSMOS 249 DEB.

Target Orbit TCA Probability of collision Miss distance Type
THORAD AGENA D DEB SSO 2025-04-25 02:06:28 0.0001115764 153.0 (m) DEBRIS
CZ-6A DEB LEO 2025-01-29 02:34:54 0.0001076487 555.0 (m) DEBRIS

Associated space launch

The I2P satellites were the first soviet coorbital ASAT system.

COSMOS 249 DEB was lifted into orbit during the mission ‘Tsiklon-2A | I2P 1’, on board a Tsiklon-2A space rocket.

The launch took place on Oct. 20, 1968, 4:02 a.m. from 90/20.

For more information about the launch, click the button.

Launch to space Tsiklon-2A | I2P 1
Tsiklon-2A | I2P 1

Agency: N/A

Status: Launch Successful

Launch date: Oct. 20, 1968, 4:02 a.m. UTC

Rocket: Tsiklon-2A

Launch pad: 90/20

Location: Baikonur Cosmodrome, Republic of Kazakhstan

...

Latest news about this satellite

There are no fresh news available about this satellite. Check back as we update our databases every day.


Newsletter sign-up

Weekly statistics, charts and insights to help you stay on top of the space industry.